Stations météo

réclame
Mon MeteoGroup
Dunkeswell Aerodrome, Grande-Bretagne (3840): Température de l'air & dewpoint: 09.11.2018 23:00:00 - 15.11.2018 23:00:00 (GMT)Dunkeswell Aerodrome, Grande-Bretagne (3840): Température de l'air -20cm & Température de l'air -100cm: 09.11.2018 23:00:00 - 15.11.2018 23:00:00 (GMT)Dunkeswell Aerodrome, Grande-Bretagne (3840): Vitesse du vent & gusts: 09.11.2018 23:00:00 - 15.11.2018 23:00:00 (GMT)Dunkeswell Aerodrome, Grande-Bretagne (3840): Direction du vent: 09.11.2018 23:00:00 - 15.11.2018 23:00:00 (GMT)Dunkeswell Aerodrome, Grande-Bretagne (3840): reduced air pressure: 09.11.2018 23:00:00 - 15.11.2018 23:00:00 (GMT)Dunkeswell Aerodrome, Grande-Bretagne (3840): visibility: 09.11.2018 23:00:00 - 15.11.2018 23:00:00 (GMT)Dunkeswell Aerodrome, Grande-Bretagne (3840): Quantités de précipitations: 09.11.2018 23:00:00 - 15.11.2018 23:00:00 (GMT)
Date & Time tt [°C] td [°C] tt -20cm [°C] tt -100cm [°C] ff [km/h] ff [knt] fx [km/h] fx [knt] dd ppp [hPa] vv [km] rr [mm]
15.11.2018 23:00:00 11,0 11,0 - - 9 5 - - S 1020,7 3,3 0,0
15.11.2018 22:00:00 11,1 11,1 - - 11 6 - - S 1020,4 6 0,0
15.11.2018 21:00:00 11,3 11,3 - - 9 5 - - S 1019,7 2,9 0,0
15.11.2018 20:00:00 11,4 11,4 - - 9 5 - - S 1019,0 0,1 0,2
15.11.2018 19:00:00 11,4 11,4 - - 11 6 - - S 1019,0 0,2 0,2
15.11.2018 18:00:00 11,3 11,3 - - 13 7 - - SSE 1018,8 2,8 0,0
15.11.2018 17:00:00 11,3 11,3 - - 13 7 - - S 1018,3 - 0,2
15.11.2018 16:00:00 11,4 11,4 - - 21 11 - - SSE 1018,0 - 0,0
15.11.2018 15:00:00 11,7 11,7 - - 16 9 - - SSE 1018,1 - 0,0
15.11.2018 14:00:00 11,9 11,9 - - 16 9 - - S 1018,3 0,1 0,0
15.11.2018 13:00:00 11,8 11,8 - - 15 8 - - S 1018,5 0,5 0,0
15.11.2018 12:00:00 11,3 11,0 - - 18 10 - - S 1019,0 6 0,0
15.11.2018 11:00:00 10,8 10,4 - - 24 13 - - SSE 1019,3 6 0,0
15.11.2018 10:00:00 10,5 9,8 - - 26 14 - - SSE 1019,3 9 0,0
15.11.2018 09:00:00 10,1 9,3 10,7 11,2 24 13 - - SSE 1019,2 8 0,0
15.11.2018 08:00:00 9,3 9,0 - - 21 11 - - SSE 1019,0 9 0,0
15.11.2018 07:00:00 8,9 8,4 - - 15 8 - - SSE 1018,8 11 0,2
15.11.2018 06:00:00 9,2 8,4 - - 15 8 - - SSE 1018,6 14 0,0
15.11.2018 05:00:00 9,1 8,1 - - 11 6 - - S 1018,8 15 0,0
15.11.2018 04:00:00 9,7 9,4 - - 11 6 - - S 1018,7 14 0,0
15.11.2018 03:00:00 8,3 7,8 - - 11 6 - - S 1018,9 11 0,0
15.11.2018 02:00:00 8,7 7,9 - - 16 9 - - S 1019,1 13 0,0
15.11.2018 01:00:00 8,8 8,2 - - 16 9 - - SSW 1019,0 16 0,0
15.11.2018 00:00:00 9,0 7,6 - - 15 8 - - SSW 1019,3 16 0,0
14.11.2018 23:00:00 9,0 7,5 - - 18 10 - - S 1019,1 25 0,0
14.11.2018 22:00:00 8,3 6,6 - - 15 8 - - S 1019,7 25 0,0
14.11.2018 21:00:00 8,3 6,8 - - 13 7 - - S 1019,8 26 0,0
14.11.2018 20:00:00 8,2 6,7 - - 13 7 - - SSW 1019,8 23 0,0
14.11.2018 19:00:00 9,6 8,6 - - 13 7 - - SSW 1019,7 19 0,0
14.11.2018 18:00:00 9,1 7,6 - - 13 7 - - S 1019,7 25 0,0
14.11.2018 17:00:00 9,5 8,0 - - 18 10 - - SSW 1019,3 24 0,0
14.11.2018 16:00:00 10,3 8,9 - - 18 10 - - S 1019,4 22 0,0
14.11.2018 15:00:00 11,0 9,3 - - 21 11 - - S 1019,3 24 0,0
14.11.2018 14:00:00 11,5 9,1 - - 28 15 - - S 1019,5 27 0,0
14.11.2018 13:00:00 11,2 8,8 - - 29 16 - - SSW 1019,8 29 0,0
14.11.2018 12:00:00 11,6 9,3 - - 24 13 - - S 1020,3 30 0,0
14.11.2018 11:00:00 11,0 8,8 - - 26 14 - - SSW 1020,9 28 0,0
14.11.2018 10:00:00 10,9 8,1 - - 29 16 48 26 SSW 1020,9 30 0,0
14.11.2018 09:00:00 10,4 8,7 10,5 11,2 31 17 46 25 SSW 1020,9 24 0,0
14.11.2018 08:00:00 10,2 8,9 - - 34 18 52 28 SSW 1020,7 21 0,0
14.11.2018 07:00:00 10,1 8,8 - - 29 16 - - SSW 1020,6 20 0,0
14.11.2018 06:00:00 10,3 8,9 - - 31 17 50 27 SSW 1020,6 20 0,0
14.11.2018 05:00:00 10,4 8,8 - - 34 18 52 28 SSW 1020,7 23 0,0
14.11.2018 04:00:00 10,2 9,0 - - 34 18 48 26 SSW 1020,5 21 0,0
14.11.2018 03:00:00 10,4 9,1 - - 34 18 52 28 SSW 1020,8 20 0,0
14.11.2018 02:00:00 10,4 8,7 - - 37 20 50 27 SSW 1021,5 23 0,0
14.11.2018 01:00:00 10,6 9,2 - - 29 16 50 27 SSW 1022,3 20 0,0
14.11.2018 00:00:00 10,6 9,1 - - 31 17 - - SSW 1022,8 20 0,0
13.11.2018 23:00:00 10,6 8,8 - - 31 17 50 27 SSW 1022,8 21 0,0
13.11.2018 22:00:00 10,4 9,0 - - 29 16 - - SSW 1022,9 20 0,0
13.11.2018 21:00:00 10,3 9,3 - - 28 15 - - SSW 1023,3 17 0,0
13.11.2018 20:00:00 10,1 9,3 - - 26 14 - - SSW 1023,5 16 0,0
13.11.2018 19:00:00 9,6 9,0 - - 15 8 - - S 1023,8 14 0,0
13.11.2018 18:00:00 9,7 8,5 - - 26 14 - - SSW 1023,5 19 0,0
13.11.2018 17:00:00 9,5 7,8 - - 21 11 - - SSW 1023,3 23 0,0
13.11.2018 16:00:00 10,4 7,9 - - 21 11 - - SSW 1023,1 27 0,0
13.11.2018 15:00:00 11,1 7,9 - - 21 11 - - SSW 1022,8 30 0,0
13.11.2018 14:00:00 11,5 8,3 - - 16 9 - - SW 1022,7 27 0,0
13.11.2018 13:00:00 11,1 7,7 - - 16 9 - - SW 1022,8 26 0,0
13.11.2018 12:00:00 10,5 7,7 - - 16 9 - - SW 1022,7 24 0,0
13.11.2018 11:00:00 10,6 8,4 - - 21 11 - - SW 1022,3 21 0,0
13.11.2018 10:00:00 9,4 7,8 - - 15 8 - - SW 1021,9 21 0,0
13.11.2018 09:00:00 8,4 7,1 10,5 11,4 15 8 - - SW 1021,0 21 0,0
13.11.2018 08:00:00 7,1 6,8 - - 15 8 - - SW 1020,1 20 0,0
13.11.2018 07:00:00 6,1 6,0 - - 15 8 - - WSW 1019,1 15 0,0
13.11.2018 06:00:00 6,0 5,7 - - 16 9 - - WSW 1018,1 15 0,0
13.11.2018 05:00:00 6,7 6,3 - - 16 9 - - WSW 1016,9 18 0,0
13.11.2018 04:00:00 6,7 6,0 - - 15 8 - - SW 1015,8 19 0,2
13.11.2018 03:00:00 7,4 6,6 - - 15 8 - - SW 1015,1 19 0,0
13.11.2018 02:00:00 7,4 6,7 - - 13 7 - - SW 1014,6 20 0,2
13.11.2018 01:00:00 7,0 6,2 - - 15 8 - - WSW 1013,8 17 0,0
13.11.2018 00:00:00 7,0 6,3 - - 16 9 - - SW 1013,0 18 0,0
12.11.2018 23:00:00 7,4 6,7 - - 15 8 - - SW 1012,2 18 0,0
12.11.2018 22:00:00 7,4 6,8 - - 18 10 - - SSW 1011,6 19 0,0
12.11.2018 21:00:00 7,4 6,2 - - 18 10 - - SSW 1011,2 24 0,0
12.11.2018 20:00:00 7,7 6,2 - - 26 14 50 27 SSW 1010,7 35 0,6
12.11.2018 19:00:00 9,2 7,4 - - 22 12 - - SSW 1010,2 19 0,0
12.11.2018 18:00:00 9,4 7,6 - - 29 16 - - SSW 1009,9 20 0,0
12.11.2018 17:00:00 9,1 7,5 - - 24 13 - - SSW 1009,5 20 0,2
12.11.2018 16:00:00 9,2 8,3 - - 24 13 - - SSW 1009,2 10 1,2
12.11.2018 15:00:00 9,1 6,7 - - - - 50 27 - 1008,6 4,4 0,2
12.11.2018 14:00:00 11,5 7,5 - - 35 19 50 27 SSW 1007,9 26 0,0
12.11.2018 13:00:00 11,6 7,5 - - 29 16 52 28 SSW 1007,8 25 0,0
12.11.2018 12:00:00 11,0 8,6 - - 26 14 - - SW 1007,7 22 1,2
12.11.2018 11:00:00 8,9 6,8 - - 28 15 - - SW 1008,0 1,4 3,8
12.11.2018 10:00:00 10,6 8,8 - - 22 12 52 28 SSW 1007,7 0,9 1,0
12.11.2018 09:00:00 10,4 9,0 10,7 11,4 24 13 - - SSW 1007,4 14 0,0
12.11.2018 08:00:00 8,9 8,2 - - 21 11 - - S 1006,9 14 0,0
12.11.2018 07:00:00 8,9 8,4 - - 22 12 - - SSW 1006,3 15 0,0
12.11.2018 06:00:00 8,5 8,0 - - 16 9 - - S 1005,8 14 0,0
12.11.2018 05:00:00 8,6 7,9 - - 16 9 - - S 1005,4 15 0,2
12.11.2018 04:00:00 8,9 8,0 - - 22 12 - - SSW 1005,1 17 0,0
12.11.2018 03:00:00 8,5 7,7 - - 21 11 - - SSW 1004,8 18 0,0
12.11.2018 02:00:00 8,6 7,7 - - 18 10 - - SSW 1004,6 18 0,0
12.11.2018 01:00:00 9,0 8,0 - - 24 13 - - SSW 1004,3 20 0,0
12.11.2018 00:00:00 9,1 7,9 - - 22 12 - - SSW 1004,2 10 0,0
11.11.2018 23:00:00 8,9 7,8 - - 22 12 - - S 1004,1 16 0,0
11.11.2018 22:00:00 9,1 7,7 - - 26 14 - - SSW 1003,7 17 0,0
11.11.2018 21:00:00 9,3 7,8 - - 28 15 - - SSW 1003,4 17 0,2
11.11.2018 20:00:00 9,2 7,6 - - 26 14 - - SSW 1003,0 18 0,0
11.11.2018 19:00:00 9,1 7,9 - - 28 15 - - SSW 1002,7 17 0,0
11.11.2018 18:00:00 8,7 7,1 - - 16 9 - - SSW 1002,3 25 0,0
11.11.2018 17:00:00 8,3 6,1 - - 13 7 - - SW 1001,7 28 0,0
11.11.2018 16:00:00 9,7 6,2 - - 21 11 - - SSW 1001,0 25 0,0
11.11.2018 15:00:00 11,3 6,6 - - 22 12 - - SSW 999,9 25 0,0
11.11.2018 14:00:00 11,7 6,8 - - 24 13 - - SW 999,4 27 0,0
11.11.2018 13:00:00 11,5 6,7 - - 24 13 - - WSW 998,8 24 0,0
11.11.2018 12:00:00 10,2 6,6 - - 22 12 - - SW 998,5 30 0,0
11.11.2018 11:00:00 9,9 7,4 - - 22 12 - - SSW 998,0 25 0,0
11.11.2018 10:00:00 9,2 6,8 - - 21 11 - - SW 997,4 26 0,0
11.11.2018 09:00:00 7,7 6,2 10,7 11,4 15 8 - - SW 996,6 27 0,0
11.11.2018 08:00:00 6,5 5,4 - - 13 7 - - SW 995,4 35 0,0
11.11.2018 07:00:00 7,0 6,7 - - 21 11 - - WSW 993,6 30 0,0
11.11.2018 06:00:00 7,5 7,5 - - 21 11 - - SW 992,4 35 0,2
11.11.2018 05:00:00 8,1 7,9 - - 24 13 - - SSW 991,5 30 1,4
11.11.2018 04:00:00 7,9 7,5 - - 16 9 - - S 991,1 5 1,0
11.11.2018 03:00:00 8,4 8,3 - - 24 13 - - SSW 992,0 5 1,2
11.11.2018 02:00:00 7,8 7,8 - - 13 7 - - S 992,4 15 0,2
11.11.2018 01:00:00 7,8 7,8 - - 15 8 - - S 993,0 17 0,0
11.11.2018 00:00:00 7,3 7,3 - - 13 7 - - SSW 993,4 16 0,0
10.11.2018 23:00:00 7,3 7,3 - - 13 7 - - SSW 993,3 16 0,0
10.11.2018 22:00:00 7,7 7,5 - - 15 8 - - SSW 993,4 20 0,0
10.11.2018 21:00:00 8,3 8,3 - - 15 8 - - SW 993,1 17 0,0
10.11.2018 20:00:00 8,5 8,4 - - 18 10 - - SSW 993,0 18 0,6
10.11.2018 19:00:00 8,0 8,0 - - 15 8 - - S 992,8 4,9 0,0
10.11.2018 18:00:00 7,9 6,9 - - 16 9 - - SSW 992,7 30 0,0
10.11.2018 17:00:00 8,7 8,2 - - 16 9 - - SSW 992,3 23 0,2
10.11.2018 16:00:00 9,1 8,5 - - 16 9 - - SSW 992,1 20 0,2
10.11.2018 15:00:00 8,8 7,9 - - 16 9 - - SW 992,1 40 0,4
10.11.2018 14:00:00 10,3 8,4 - - 24 13 - - SW 992,0 27 0,0
10.11.2018 13:00:00 9,5 7,9 - - 18 10 48 26 SW 991,9 40 1,0
10.11.2018 12:00:00 10,5 9,6 - - 31 17 52 28 SSW 991,9 16 0,2
10.11.2018 11:00:00 10,3 10,1 - - 26 14 - - S 992,1 17 0,4
10.11.2018 10:00:00 8,2 8,0 - - 18 10 50 27 SSW 992,8 35 3,4
10.11.2018 09:00:00 9,9 9,7 10,9 11,4 28 15 - - SSW 992,4 11 0,2
10.11.2018 08:00:00 9,3 9,3 - - 22 12 - - SSW 992,8 12 1,8
10.11.2018 07:00:00 8,6 8,5 - - 16 9 - - S 992,8 9 0,0
10.11.2018 06:00:00 7,7 7,5 - - 13 7 - - SSW 992,8 9 0,0
10.11.2018 05:00:00 7,3 6,9 - - 15 8 - - SSW 992,5 10 0,0
10.11.2018 04:00:00 8,1 7,5 - - 18 10 - - SW 992,1 11 0,0
10.11.2018 03:00:00 8,0 7,8 - - 15 8 - - SW 991,9 10 0,0
10.11.2018 02:00:00 8,1 8,0 - - 16 9 - - SW 991,7 12 0,2
10.11.2018 01:00:00 7,8 7,7 - - 16 9 - - SW 991,0 13 0,0
10.11.2018 00:00:00 8,1 7,5 - - 16 9 - - SW 990,5 23 0,0
09.11.2018 23:00:00 8,5 8,2 - - 18 10 46 25 SSW 990,4 10 2,2

tt = Température de l'air
td = dewpoint
tt -20cm = Température de l'air -20cm
tt -100cm = Température de l'air -100cm
ff = Vitesse du vent
fx = gusts
dd = Direction du vent
ppp = reduced air pressure
vv = visibility
rr = Quantités de précipitations

stations d'obs. à proximité